Location: CARMA
(37.2805°N, 118.1419°W)
Time: 02:48:12
(UTC-07:00)

Daily predictions for brighter satellites

Satellite Brightness Start Highest point End
(mag) Time Altitude Azimuth Time Altitude Azimuth Time Altitude Azimuth
SL-16 R/B 4.0 00:28:45 27° N 00:28:45 27° N 00:31:20 10° NNE
CZ-4C R/B 4.0 00:30:41 10° NW 00:34:57 36° WNW 00:34:57 36° WNW
Cosmos 2237 Rocket 4.5 00:49:57 17° NW 00:49:57 17° NW 00:53:11 10° NNW
ATLAS 2AS CENTAUR R/B 3.4 01:07:36 57° NNW 01:07:36 57° NNW 01:14:25 10° NNE
ATLAS 3B R/B 3.9 01:37:08 10° NW 01:40:31 32° NW 01:40:31 32° NW
Cosmos 2369 Rocket 4.0 01:47:30 10° NNW 01:49:47 25° NNW 01:49:47 25° NNW
Cosmos 1943 Rocket 3.6 02:06:07 10° NNW 02:09:23 34° N 02:09:23 34° N
USA 215 3.7 02:08:24 10° NE 02:14:19 53° NNW 02:14:19 53° NNW
ARIANE 5 R/B 4.3 02:26:25 10° NE 02:30:09 25° E 02:30:09 25° E
NOSS 3-2 (C) 4.3 02:25:25 10° NNW 02:32:59 66° NE 02:37:19 30° SE
SL-16 R/B 3.6 02:36:44 32° ESE 02:38:36 40° ENE 02:44:17 10° N
USA 267 4.0 02:39:08 10° ESE 02:45:23 50° NE 02:51:39 10° NW
ADEOS Rocket 3.9 02:40:21 10° NNE 02:46:11 42° E 02:46:59 41° ESE
GEOS 3 Rocket 4.4 02:42:58 10° NE 02:47:02 47° ENE 02:47:02 47° ENE
Cosmos 1656 Rocket 4.1 02:48:30 10° NNW 02:53:09 55° NNE 02:53:09 55° NNE
NOSS 3-4 (A) 3.8 02:57:12 55° NW 02:57:12 55° NW 03:03:12 10° NNE
NOSS 3-4 (C) 3.8 02:57:17 55° NW 02:57:17 55° NW 03:03:20 10° NNE
Meteor 1-21 4.2 03:10:08 74° N 03:10:08 74° N 03:15:12 10° N
NOSS 3-2 (A) 4.0 03:06:18 10° NW 03:13:29 60° WSW 03:13:29 60° WSW
Lacrosse 5 rocket 2.4 03:17:23 47° ENE 03:17:23 47° ENE 03:20:56 10° NE
Cosmos 1271 Rocket 4.3 03:22:12 10° N 03:24:31 32° NNE 03:24:31 32° NNE
Cosmos 1758 Rocket 4.0 03:28:15 57° ENE 03:28:15 57° ENE 03:32:06 10° NNE
Cosmos 1624 Rocket 4.3 03:22:46 10° N 03:27:57 62° ENE 03:29:49 38° SE
Nadezhda 3 Rocket 4.3 03:30:44 50° WNW 03:30:44 50° WNW 03:36:48 10° N
Resurs 1-4 Rocket 1.9 03:25:24 10° N 03:30:41 81° WNW 03:30:41 81° WNW
Spot 4 Rocket 4.1 03:29:35 10° N 03:34:25 61° WNW 03:34:25 61° WNW
USA 32 3.9 03:35:07 76° SSE 03:35:31 87° E 03:40:48 10° N
RESURS DK-1 4.0 03:37:33 26° NNW 03:37:33 26° NNW 03:40:01 10° N
Cosmos 921 Rocket 3.7 03:33:16 10° N 03:37:42 56° ENE 03:39:02 40° SE
CZ-2D R/B 2.0 03:36:09 10° N 03:41:24 65° WNW 03:41:36 65° W
Cosmos 2056 Rocket 3.5 03:36:04 10° NNW 03:41:25 78° ENE 03:43:41 35° SSE
Cosmos 1953 Rocket 3.6 03:49:33 67° NW 03:49:33 67° NW 03:53:41 10° N
SL-27 R/B 4.3 03:50:58 24° NNW 03:50:58 24° NNW 03:52:48 10° N
ADEOS 3.8 03:47:26 10° N 03:52:28 50° WNW 03:52:48 49° W
Cosmos 2082 Rocket 3.7 03:50:19 16° SSE 03:54:07 32° ESE 03:59:06 10° NE
Cosmos 1833 Rocket 4.3 03:51:16 14° SSE 03:55:14 29° ESE 04:00:00 10° NE
COSMOS 2455 3.1 03:50:00 10° NW 03:55:09 44° W 03:55:09 44° W
Cosmos 1727 Rocket 4.1 03:54:52 27° S 03:58:22 75° E 04:04:32 10° N
IRS-1D 4.0 03:54:05 10° N 03:58:58 42° WNW 03:59:23 41° W
MOZ.5/SAFIR/RUBIN 5/SL-8 3.7 03:57:43 32° SSE 03:59:51 82° ENE 04:04:32 10° N
COSMOS 2406 4.1 03:59:48 31° WNW 04:00:36 32° WNW 04:05:44 10° N
CZ-2D R/B 3.2 03:59:26 10° N 04:03:29 81° WNW 04:03:47 74° SW
Cosmos 1707 2.9 04:03:04 52° SSE 04:03:48 66° E 04:07:39 10° NNE
ARIANE 5 R/B 3.3 04:05:06 10° N 04:09:50 35° WNW 04:10:30 34° W
COBE Rocket 4.4 04:06:42 10° N 04:11:24 41° WNW 04:12:04 38° W
NOSS 2-2 (E) 4.3 04:11:37 35° WNW 04:12:07 36° NW 04:16:25 10° NNE
Cosmos 1470 2.6 04:09:35 10° N 04:13:29 81° W 04:14:26 50° S
Cosmos 1953 3.4 04:11:41 10° NNW 04:14:21 31° WNW 04:14:21 31° WNW
Cosmos 1452 Rocket 3.9 04:11:11 10° NNW 04:16:26 65° ENE 04:21:37 10° SSE
COSMOS 2487 2.4 04:17:47 60° S 04:18:22 85° ESE 04:21:57 10° NNE
GPS 2-05 Rocket1 4.1 04:20:09 28° SSE 04:20:09 28° SSE 04:23:06 10° E
SL-16 R/B 3.3 04:21:49 29° WSW 04:22:15 29° W 04:27:32 10° NW
Cosmos 1378 3.2 04:20:57 33° S 04:22:29 75° E 04:26:14 10° N
CZ-3 R/B 4.3 04:15:03 16° SSW 04:26:37 26° S 04:33:44 10° ESE
UNKNOWN OBJECT B 3.6 04:23:06 10° N 04:26:42 33° WNW 04:27:03 33° W
USA 267 3.5 04:22:12 10° SSE 04:28:22 44° SW 04:34:35 10° WNW
Okean O Rocket 2.3 04:24:34 10° NNE 04:28:55 53° E 04:33:06 11° S
Cosmos 1818 4.2 04:28:18 29° WSW 04:30:26 41° NW 04:35:37 10° NNE
ADEOS Rocket 4.1 04:26:21 10° N 04:31:29 29° WNW 04:33:57 23° WSW
Cosmos 1459 Rocket 4.5 04:28:17 10° N 04:34:24 63° E 04:40:35 10° SSE
CENTAUR R/B 3.1 04:26:30 10° NW 04:34:27 66° WSW 04:42:46 10° SSE
ADEOS II 2.5 04:31:22 10° NNE 04:36:37 64° ESE 04:41:48 10° S
Cosmos 1048 Rocket 4.2 04:32:19 14° S 04:36:39 68° ESE 04:41:45 10° NNE
Tiangong 1 1.8 04:35:39 23° NW 04:37:04 45° NNE 04:39:48 10° E
Cosmos 1605 Rocket 4.3 04:34:25 10° NNW 04:40:13 43° W 04:44:55 15° SSW
Meteor 1-24 Rocket 3.8 04:36:34 10° S 04:41:58 75° E 04:47:35 10° NNE
Intercosmos 25 4.2 04:39:48 10° NNW 04:46:43 60° W 04:50:59 10° S
PSLV R/B 3.9 04:43:43 10° N 04:47:49 69° WNW 04:51:01 16° SSW
USA 161 3.5 04:49:30 16° WNW 04:49:30 16° WNW 04:50:37 10° NW
Cosmos 1269 Rocket 4.0 04:44:59 13° SSW 04:49:44 89° E 04:55:02 10° NNE
Cosmos 1733 4.2 04:47:33 10° NW 04:50:42 25° W 04:51:22 24° WSW
Lacrosse 5 rocket 3.3 04:53:05 13° W 04:55:56 22° NW 04:59:35 10° NNE
Cosmos 389 Rocket 3.7 04:53:16 10° NW 04:56:13 24° W 04:56:58 22° WSW
SL-24 R/B 4.4 04:55:08 10° NNE 04:59:47 70° E 05:04:00 10° S
Delta 2 Rocket 2.8 04:59:49 20° W 05:01:54 58° S 05:05:13 10° ESE
Cosmos 2098 Rocket 4.2 05:02:23 10° WNW 05:03:08 12° WNW 05:03:08 12° WNW
CZ-4B DEB 4.2 04:58:51 10° NNE 05:04:22 82° WNW 05:09:50 10° SSW
Orbus 7S? 2.9 05:02:27 10° NW 05:05:19 63° NE 05:07:56 10° SE
MOS 1 Rocket 4.4 05:02:13 10° NNW 05:05:42 24° WNW 05:08:13 15° WSW
Cosmos 1842 Rocket 3.7 05:01:41 10° NNW 05:05:58 52° W 05:10:17 10° S
CZ-4B R/B 3.3 05:02:01 10° N 05:06:15 55° WNW 05:10:37 10° SSW
Meteor 2-17 Rocket 4.4 05:00:34 10° N 05:06:38 86° W 05:12:41 10° S
Cosmos-2242 4.3 05:03:21 10° NW 05:06:40 21° W 05:08:56 15° SW
MTI 4.0 05:03:58 10° SSE 05:07:12 76° ENE 05:10:26 10° N
Cosmos 1000 Rocket 4.5 05:01:57 10° SSW 05:08:02 66° W 05:14:13 10° N
Cosmos 1697 Rocket 3.0 05:02:31 10° NNW 05:08:08 71° ENE 05:13:43 10° SSE
EO 1 Del DPAF 3.3 05:05:04 10° SSE 05:08:54 86° E 05:12:47 10° NNW
Cosmos 2100 Rocket 4.0 05:05:30 10° NNW 05:11:35 59° W 05:17:34 10° S
Cosmos 2278 3.9 05:07:12 10° NNW 05:12:40 48° WSW 05:18:06 10° S
PSLV R/B 3.6 05:09:05 10° N 05:13:24 61° WNW 05:17:39 10° SSW
IRAS Rocket 4.4 05:11:42 10° NNE 05:17:22 87° ESE 05:23:00 10° SSW
Cosmos 2173 Rocket 4.1 05:12:30 10° NNW 05:18:39 57° W 05:24:40 10° SSW
Cosmos 2369 4.1 05:14:49 10° NW 05:20:11 43° WSW 05:25:32 10° S
Cosmos 1674 3.3 05:21:37 10° S 05:25:19 59° E 05:29:05 10° NNE
CZ-4B R/B 4.2 05:21:37 10° NNE 05:25:35 65° E 05:29:21 10° S
Cosmos 2221 2.4 05:22:07 10° N 05:26:24 82° W 05:30:39 10° S
Cosmos 2061 Rocket 4.4 05:30:44 10° NNW 05:36:33 43° W 05:42:20 10° SSW
Cosmos 2082 Rocket 3.1 05:33:01 10° WSW 05:38:06 33° WNW 05:43:14 10° N
Meteor PRIRODA 3.8 05:35:16 10° N 05:38:53 53° WNW 05:42:28 10° SSW
Cosmos 1833 Rocket 3.5 05:33:56 10° SW 05:38:59 35° WNW 05:44:06 10° N
CZ-2C R/B 4.0 05:35:54 10° S 05:40:07 44° W 05:44:23 10° NNW
Okean-O 2.7 05:36:05 10° NNE 05:40:33 88° ESE 05:44:59 10° SSW
Cosmos 1980 Rocket 2.4 05:36:10 10° NNW 05:41:53 80° ENE 05:47:33 10° SSE
